Location: Te Maire Creek
(41.1333°S, 175.9167°E)
Time: 23:03:28
(UTC+00:00)

Cosmos 2263 Rocket - Pass Details

Date: 19 May 2024
Orbit: 824 x 846 km, 71.0° (Epoch: 22 June)

Event Time Altitude Azimuth Distance (km) Brightness Sun altitude
Exits shadow 18:22:38 11° 279° (W) 2,401 4.0 -11.2°
Drops below altitude 10° 18:23:54 10° 292° (WNW) 2,480 4.2 -11.0°
Sets 18:28:21 0° 325° (NW) 3,399 5.2 -10.2°
